Weather History for Punta Gorda, FL

Change the Weather History Date:

Thursday, December 27, 2012

  Actual Average Record
Temperature  
Mean Temperature 57 °F -  
Max Temperature 68 °F 71 °F 84 °F (1996)
Min Temperature 46 °F 49 °F 36 °F (2010)
Degree Days  
Heating Degree Days 8    
Growing Degree Days 7 (Base 50)    
Moisture  
Dew Point 46 °F    
Average Humidity 73    
Maximum Humidity 93    
Minimum Humidity 39    
Precipitation  
Precipitation 0.00 in - - ()
Sea Level Pressure  
Sea Level Pressure 30.08 in    
Wind  
Wind Speed 5 mph (North)    
Max Wind Speed 9 mph    
Max Gust Speed -    
Visibility 10 miles    
Events      
Averages and records for this station are not official NWS values.
T = Trace of Precipitation, MM = Missing Value Source: NWS Daily Summary

Daily Weather History Graph

Daily Weather History Graph

Search for Another Location

Airport:

Trip Planner

Search our weather history database for the weather conditions in past years. The results will help you decide how hot, cold, wet, or windy it might be!

Date:

Astronomy

Dec. 27, 2012 Rise Set
Actual Time 7:15 AM EST 5:43 PM EST
Civil Twilight 6:50 AM EST 6:08 PM EST
Nautical Twilight 6:21 AM EST 6:37 PM EST
Astronomical Twilight 5:52 AM EST 7:06 PM EST
Moon 5:22 PM EST (12/27) 6:28 AM EST (12/27)
Length of Visible Light 11h 18m
Length of Day
10h 27m
Full, 100% of the Moon is Illuminated
Dec 27
Full
Dec 28
Full
Jan 4
Last Quarter
Jan 11
New
Jan 18
First Quarter

Hourly Weather History & Observations

Time (EST) Temp. Dew Point Humidity Pressure Visibility Wind Dir Wind Speed Gust Speed Precip Events Conditions
12:53 AM 55.9 °F 50.0 °F 80% 30.04 in 10.0 mi NNW 6.9 mph - N/A   Clear
1:53 AM 54.0 °F 50.0 °F 86% 30.05 in 10.0 mi NNW 3.5 mph - N/A   Clear
2:53 AM 52.0 °F 48.0 °F 86% 30.04 in 10.0 mi NNW 6.9 mph - N/A   Clear
3:53 AM 53.1 °F 48.0 °F 83% 30.05 in 10.0 mi North 8.1 mph - N/A   Clear
4:53 AM 50.0 °F 46.9 °F 89% 30.06 in 10.0 mi North 6.9 mph - N/A   Clear
5:53 AM 48.9 °F 46.0 °F 90% 30.08 in 10.0 mi North 6.9 mph - N/A   Clear
6:53 AM 46.9 °F 44.1 °F 90% 30.08 in 10.0 mi North 4.6 mph - N/A   Clear
7:53 AM 46.9 °F 45.0 °F 93% 30.10 in 10.0 mi Calm Calm - N/A   Clear
8:53 AM 53.1 °F 46.9 °F 80% 30.12 in 10.0 mi ENE 4.6 mph - N/A   Clear
9:53 AM 55.9 °F 46.9 °F 72% 30.12 in 10.0 mi North 5.8 mph - N/A   Clear
10:53 AM 60.1 °F 46.0 °F 60% 30.11 in 10.0 mi NNW 9.2 mph - N/A   Clear
11:53 AM 63.0 °F 45.0 °F 52% 30.10 in 10.0 mi North 3.5 mph - N/A   Clear
12:53 PM 64.9 °F 41.0 °F 42% 30.08 in 10.0 mi North 5.8 mph - N/A   Clear
1:53 PM 66.0 °F 43.0 °F 43% 30.05 in 10.0 mi Variable 3.5 mph - N/A   Clear
2:53 PM 68.0 °F 42.1 °F 39% 30.05 in 10.0 mi North 4.6 mph - N/A   Clear
3:53 PM 68.0 °F 44.1 °F 42% 30.04 in 10.0 mi NW 4.6 mph - N/A   Clear
4:53 PM 63.0 °F 48.9 °F 60% 30.04 in 10.0 mi SW 5.8 mph - N/A   Clear
5:53 PM 60.1 °F 50.0 °F 69% 30.05 in 10.0 mi Calm Calm - N/A   Clear
7:53 PM 52.0 °F 48.0 °F 86% 30.08 in 10.0 mi NNE 3.5 mph - N/A   Clear
8:53 PM 52.0 °F 44.1 °F 74% 30.10 in 10.0 mi North 3.5 mph - N/A   Clear
9:53 PM 48.9 °F 44.1 °F 83% 30.11 in 10.0 mi NNE 3.5 mph - N/A   Clear
10:53 PM 46.9 °F 43.0 °F 86% 30.11 in 10.0 mi NNE 3.5 mph - N/A   Clear
11:53 PM 46.0 °F 43.0 °F 89% 30.11 in 10.0 mi Calm Calm - N/A   Clear